TimeCDT,TemperatureF,Dew PointF,Humidity,Sea Level PressureIn,VisibilityMPH,Wind Direction,Wind SpeedMPH,Gust SpeedMPH,PrecipitationIn,Events,Conditions,WindDirDegrees,DateUTC
12:53 AM,73.9,66.9,79,30.24,10.0,West,8.1,127.7,N/A,,Clear,280,2013-08-26 05:53:00
1:53 AM,71.1,66.9,87,30.23,10.0,ENE,3.5,-,N/A,,Clear,60,2013-08-26 06:53:00
2:53 AM,70.0,66.0,87,30.25,9.0,Calm,Calm,-,N/A,,Clear,0,2013-08-26 07:53:00
3:53 AM,70.0,64.9,84,30.24,10.0,Calm,Calm,-,N/A,,Clear,0,2013-08-26 08:53:00
4:53 AM,69.1,64.9,87,30.25,9.0,Calm,Calm,-,N/A,,Mostly Cloudy,0,2013-08-26 09:53:00
5:53 AM,68.0,64.9,90,30.25,9.0,NE,3.5,-,N/A,,Scattered Clouds,40,2013-08-26 10:53:00
6:53 AM,68.0,64.0,87,30.25,8.0,Calm,Calm,-,N/A,,Partly Cloudy,0,2013-08-26 11:53:00
7:53 AM,72.0,64.0,76,30.27,10.0,ENE,4.6,-,N/A,,Clear,60,2013-08-26 12:53:00
8:53 AM,75.0,64.0,69,30.28,10.0,ENE,5.8,-,N/A,,Clear,60,2013-08-26 13:53:00
9:53 AM,78.1,63.0,60,30.28,10.0,ENE,3.5,-,N/A,,Clear,70,2013-08-26 14:53:00
10:53 AM,81.0,62.1,52,30.28,10.0,Variable,3.5,-,N/A,,Clear,0,2013-08-26 15:53:00
11:53 AM,82.9,62.1,49,30.27,10.0,East,9.2,-,N/A,,Clear,80,2013-08-26 16:53:00
12:53 PM,84.0,62.1,47,30.25,10.0,East,9.2,-,N/A,,Partly Cloudy,90,2013-08-26 17:53:00
1:53 PM,84.9,61.0,44,30.23,10.0,ENE,10.4,-,N/A,,Scattered Clouds,70,2013-08-26 18:53:00
2:53 PM,84.9,60.1,43,30.20,10.0,East,9.2,-,N/A,,Mostly Cloudy,100,2013-08-26 19:53:00
3:53 PM,86.0,61.0,43,30.18,10.0,ENE,6.9,-,N/A,,Scattered Clouds,70,2013-08-26 20:53:00
4:53 PM,84.9,61.0,44,30.17,10.0,ENE,3.5,-,N/A,,Mostly Cloudy,70,2013-08-26 21:53:00
5:53 PM,84.0,61.0,46,30.16,10.0,East,3.5,-,N/A,,Partly Cloudy,90,2013-08-26 22:53:00
6:53 PM,79.0,64.9,62,30.15,10.0,East,4.6,-,N/A,,Clear,90,2013-08-26 23:53:00
7:53 PM,73.9,64.9,73,30.15,10.0,Calm,Calm,-,N/A,,Clear,0,2013-08-27 00:53:00
8:53 PM,72.0,66.9,84,30.16,10.0,Calm,Calm,-,N/A,,Clear,0,2013-08-27 01:53:00
9:53 PM,70.0,66.9,90,30.16,8.0,Calm,Calm,-,N/A,,Clear,0,2013-08-27 02:53:00
10:53 PM,69.1,66.0,90,30.16,8.0,Calm,Calm,-,N/A,,Clear,0,2013-08-27 03:53:00
11:53 PM,68.0,66.0,93,30.17,8.0,Calm,Calm,-,N/A,,Clear,0,2013-08-27 04:53:00